AirNav   Everest Fuels
 
 345 users online  

2AL3 Emerald Mountain Airport
Wetumpka, Alabama, USA

GOING TO WETUMPKA?


FAA INFORMATION EFFECTIVE 12 SEPTEMBER 2019

Location

FAA Identifier: 2AL3
Lat/Long: 32-27-19.4910N 086-07-09.0000W
32-27.324850N 086-07.150000W
32.4554142,-86.1191667
(estimated)
Elevation: 365 ft. / 111 m (estimated)
Variation: 01W (1990)
From city: 7 miles SE of WETUMPKA, AL
Time zone: UTC -5 (UTC -6 during Standard Time)
Zip code: 36093

Airport Operations

Airport use: Private use. Permission required prior to landing
Activation date: 01/1994
Control tower: no
ARTCC: ATLANTA CENTER
FSS: ANNISTON FLIGHT SERVICE STATION
Attendance: UNATNDD
Wind indicator: lighted
Segmented circle: no
Lights: ACTVT LIRL RY 06/24 - UNICOM.

Airport Communications

UNICOM: 122.8
WX ASOS at MGM (17 nm SW): PHONE 334-288-0445
WX AWOS-3P at 1A9 (20 nm W): 118.025 (334-358-0919)

Nearby radio navigation aids

VOR radial/distance  VOR name  Freq  Var
MGMr033/17.3MONTGOMERY VORTAC112.1003E
TGEr264/22.8TUSKEGEE VOR/DME117.3002E

 
NDB name  Hdg/Dist  Freq  Var  ID
BLOOD003/37.536504WTOI - --- ..

Airport Services

Runway Information

Runway 6/24

Dimensions: 2750 x 80 ft. / 838 x 24 m
Surface: turf, in good condition
Runway edge lights: low intensity
RUNWAY 6  RUNWAY 24
Traffic pattern: leftleft
Obstructions: 60 ft. tree, 540 ft. from runway60 ft. tree, 1500 ft. from runway

Airport Ownership and Management from official FAA records

Ownership: Privately-owned
Owner: SIM ALLEN
407 PEACE CHURCH RD
WETUMPKA, AL 36092
Phone 205-267-0700
Manager: SIM ALLEN
407 PEACE CHURCH RD
WETUMPKA, AL 36092
Phone 205-267-0700

Airport Operational Statistics

Aircraft based on the field: 1
Single engine airplanes: 1
    

Additional Remarks

FOR CD CTC ATLANTA ARTCC AT 770-210-7692.

Instrument Procedures

There are no published instrument procedures at 2AL3.

Some nearby airports with instrument procedures:

08A - Wetumpka Municipal Airport (12 nm W)
KMXF - Maxwell Air Force Base (13 nm W)
KMGM - Montgomery Regional Airport (Dannelly Field) (17 nm SW)
1A9 - Prattville Airport - Grouby Field (20 nm W)
06A - Moton Field Municipal Airport (22 nm E)
 
Loc | Ops | Rwys | IFR | FBO | Links
Com | Nav | Svcs | Stats | Notes
Area around 2AL3 (Emerald Mountain Airport)
 
Road maps at: MapQuest Bing Google
 
Aerial photo
No photo
 
Sectional chart

 
Airport distance calculator
Flying to Emerald Mountain Airport? Find the distance to fly.

From to 2AL3

Sunrise and sunset
Times for 24-Sep-2019
 Local
(UTC-5)
 Zulu
(UTC)
Morning civil twilight06:1011:10
Sunrise06:3511:35
Sunset18:3823:38
Evening civil twilight19:0300:03

Current date and time
Zulu (UTC)  24-Sep-2019 09:50:30
Local (UTC-5)  24-Sep-2019 04:50:30
 
METAR
KMXF 
14nm SW 
240856Z AUTO 00000KT 10SM CLR 20/18 A2993 RMK AO2 SLP136 T02020183 55010
KMGM 
17nm SW 
240853Z AUTO 22004KT 10SM CLR 21/18 A2994 RMK AO2 SLP136 T02060178 56010
K1A9 
20nm W 
240935Z AUTO 00000KT 10SM CLR 20/19 A2994 RMK AO2 T01950188
TAF
KMXF 
14nm SW 
231900Z 2319/2501 VRB06KT 9999 FEW060 QNH2994INS BECMG 2409/2410 30006KT 9999 BKN060 QNH2995INS BECMG 2417/2418 31006KT 9999 VCSH SCT040 QNH2987INS BECMG 2422/2423 30006KT 9999 NSW FEW040 QNH2985INS TX33/2320Z TN17/2411Z LAST NO AMDS AFT 2403 NEXT 2411
KMGM 
17nm SW 
240520Z 2406/2506 22003KT P6SM SKC FM241600 34007KT P6SM VCSH BKN050 BKN100
NOTAMs
Click for the latest NOTAMs
NOTAMs are issued by the DoD/FAA and will open in a separate window not controlled by AirNav.

 

 
 

Would you like to see your business listed on this page?

 If your business provides an interesting product or service to pilots, flight crews, aircraft, or users of the Emerald Mountain Airport, you should consider listing it here.  To start the listing process, click on the button below
 
Add a business
 

Other Pages about Emerald Mountain Airport

Update a link
 
Copyright © AirNav, LLC. All rights reserved. Privacy Policy  Contact